Regional Weather Roundup
Issued by NWS

Home | Current Version | Previous Version | Graphics & Text | Print | Product List | Glossary On
Versions: 1 2 3 4 5 6 7 8 9 10 11 12 13 14 15 16 17 18 19 20 21 22 23 24 25 26 27 28 29 30 31 32 33 34 35 36 37 38 39 40 41 42 43 44 45 46 47 48 49 50
000
ASUS45 KABQ 192010
RWRNM
WEATHER ROUNDUP FOR NEW MEXICO
NATIONAL WEATHER SERVICE ALBUQUERQUE NM
200 PM MDT TUE AUG 19 2014

NOTE: "FAIR" MEANS FEW OR NO CLOUDS BELOW 12,000 FEET AGL WITH NO
       SIGNIFICANT WEATHER OR OBSTRUCTIONS TO VISION.

      THIS PRODUCT IS RELEASED AS TWO VERSIONS.  ONE VERSION NEAR
      THE TOP OF THE HOUR CONTAINING PRELIMINARY DATA FROM ALBUQUERQUE
      AND OTHER STATIONS.  A FINAL VERSION WITH ADDITIONAL DATA IS
      ISSUED ABOUT 10 MINUTES AFTER THE HOUR.

NMZ501-503-504-510>518-192100-
NORTHWEST PLATEAU/NORTHCENTRAL MOUNTAINS

CITY           SKY/WX    TMP DP  RH WIND       PRES   REMARKS
FARMINGTON     MOSUNNY   84  47  27 SW13      29.98F
LOS ALAMOS     MOSUNNY   80  36  21 S8        30.15F
SANTA FE       MOSUNNY   84  41  21 VRB3      30.08F
TAOS           PTSUNNY   82  39  21 SW9G21    30.13F
ANGEL FIRE     FAIR      71  41  34 W9        30.24F

$$
NMZ402-403-502-505>509-192100-
WESTCENTRAL MOUNTAINS/SOUTHWEST MOUNTAINS

CITY           SKY/WX    TMP DP  RH WIND       PRES   REMARKS
GALLUP         LGT RAIN  66  55  67 SW20      30.15R
SILVER CITY    SUNNY     81  54  39 MISG      30.07F

$$
NMZ407-409-411-412-192100-
SOUTHERN DESERTS

CITY           SKY/WX    TMP DP  RH WIND       PRES   REMARKS
LORDSBURG      FAIR      81  57  44 W15G22    30.02F
DEMING         MOSUNNY   86  53  32 VRB7G17   29.98F
LAS CRUCES     MOSUNNY   88  51  28 SE6       29.99F
HOLLOMAN AFB   MOSUNNY   93  50  23 VRB6      29.92F
ALAMOGORDO     MOSUNNY   91  50  24 SW5       29.95F
T OR C         MOSUNNY   88  49  25 SW12G22   29.99F

$$
NMZ519>523-192100-
CENTRAL VALLEYS/CENTRAL HIGHLANDS

CITY           SKY/WX    TMP DP  RH WIND       PRES   REMARKS
ALBUQUERQUE    PTSUNNY   88  46  23 VRB3      30.02F
DOUBLE EAGLE   PTSUNNY   84  45  24 VRB6      30.06F
MORIARTY ARPT  FAIR      84  41  22 SW8G20    30.08F
CLINES CORNERS MOSUNNY   79  42  26 S9G20     30.14F
BELEN          FAIR      85  48  27 S3        30.01F
SOCORRO        FAIR      89  43  20 SE13G20   29.98F

$$
NMZ524>526-539-540-192100-
SOUTHCENTRAL MOUNTAINS

CITY           SKY/WX    TMP DP  RH WIND       PRES   REMARKS
RUIDOSO        MOSUNNY   81  37  21 E9        30.15F

$$
NMZ527>531-192100-
NORTHEAST HIGHLANDS/NORTHEAST PLAINS

CITY           SKY/WX    TMP DP  RH WIND       PRES   REMARKS
LAS VEGAS      MOSUNNY   82  43  25 SE15G23   30.12F
RATON          PTSUNNY   83  43  24 S17G25    30.04F
CLAYTON        SUNNY     92  44  19 SE15G25   29.97F

$$
NMZ532>537-192100-
EASTCENTRAL PLAINS

CITY           SKY/WX    TMP DP  RH WIND       PRES   REMARKS
TUCUMCARI      SUNNY     94  46  19 CALM      29.91F
CANNON AFB     SUNNY     91  52  27 SE8       29.95F
CLOVIS AIRPORT   N/A     90  57  33 SE7G17    29.98F

$$
NMZ028-029-538-192100-
SOUTHEAST PLAINS

CITY           SKY/WX    TMP DP  RH WIND       PRES   REMARKS
ROSWELL        SUNNY     92  53  26 S6        29.91F
ARTESIA        SUNNY     93  50  22 E9        29.89F
CARLSBAD       SUNNY     95  52  23 S8        29.87F
HOBBS          PTSUNNY   91  54  27 S12       29.93F


$$


USA.gov is the U.S. government's official web portal to all federal, state and local government web resources and services.